Flag for Turkmenistan Weather past 2 weeks in Ashgabat, Turkmenistan

Now
100 °F

Sunny.


Feels Like: 95 °F
Forecast: 71 / 101 °F
Wind: 8 mph from Southeast

Location: Ashgabat

Current Time: Aug 29, 2014 at 5:26:12 PM

Latest Report: Aug 29, 2014 at 5:00 PM


Visibility: N/A

Pressure: 29.80 "Hg

Humidity: 9%

Dew point: 32 °F

Location of AshgabatLocation

Historic Weather in Ashgabat — Graph

°F

Ashgabat temperature yesterday

Maximum temperature yesterday: 100 °F (at 4:00 PM)
Minimum temperature yesterday: 72 °F (at 7:00 AM)
Average temperature yesterday: 88 °F

Past Weeks' High & Low Weather Summary

 TemperatureHumidityPressure
High106 °F (Aug 20, 5:00 PM)42% (Aug 23, 6:30 AM)30.01 "Hg (Aug 23, 6:30 AM)
Low70 °F (Aug 16, 4:00 AM)5% (Aug 28, 1:00 PM)29.71 "Hg (Aug 22, 4:00 AM)
Average90 °F17%29.84 "Hg
* Reported Aug 14 4:00 PM — Aug 29 4:00 PM, Ashgabat, Weather by CustomWeather, © 2014

Note: Actual official high and low records may vary slightly from our data, if they occured in-between our weather recording intervals... More about our weather records

Advertising

Ashgabat weather history for previous 24 hours

 ConditionsComfort  
Time TempWeatherWind HumidityBarometerVisibility
4:00 PM
Aug 29
100 °FSunny.8 mph9%29.83 "HgN/A
3:00 PM100 °FSunny.13 mph10%29.83 "HgN/A
2:00 PM100 °FSunny.13 mph10%29.86 "HgN/A
1:00 PM99 °FSunny.13 mph10%29.86 "HgN/A
12:00 PM99 °FSunny.13 mph9%29.86 "HgN/A
11:00 AM95 °FSunny.13 mph11%29.86 "HgN/A
10:00 AM91 °FSunny.8 mph14%29.86 "HgN/A
9:00 AM86 °FSunny.8 mph15%29.86 "HgN/A
8:00 AM81 °FSunny.8 mph16%29.86 "HgN/A
7:00 AM77 °FClear.6 mph17%29.86 "HgN/A
6:00 AM75 °FClear.6 mph18%29.83 "HgN/A
5:00 AM75 °FClear.6 mph19%29.83 "HgN/A
4:00 AM79 °FClear.6 mph15%29.83 "HgN/A
3:00 AM77 °FClear.6 mph18%29.83 "HgN/A
2:30 AM79 °FClear.6 mph16%29.83 "HgN/A
2:00 AM81 °FClear.6 mph15%29.83 "HgN/A
1:30 AM79 °FClear.6 mph16%29.86 "HgN/A
1:00 AM79 °FClear.3 mph18%29.86 "HgN/A
12:30 AM81 °FClear.3 mph15%29.86 "HgN/A
12:00 AM81 °FClear.1 mph16%29.86 "HgN/A
11:30 PM
Aug 28
84 °FClear.3 mph13%29.86 "HgN/A
11:00 PM84 °FClear.3 mph12%29.86 "HgN/A
10:00 PM88 °FClear.6 mph10%29.86 "HgN/A
9:00 PM88 °FClear.6 mph15%29.86 "HgN/A
8:00 PM91 °FSunny.3 mph10%29.86 "HgN/A
7:00 PM97 °FSunny.3 mph8%29.83 "HgN/A
6:30 PM99 °FSunny.6 mph7%29.83 "HgN/A
6:00 PM99 °FSunny.8 mph6%29.83 "HgN/A
5:30 PM100 °FSunny.8 mph6%29.83 "HgN/A
Weather by CustomWeather, © 2014

See weather overviewHow to use our weather pages